Regional Weather Roundup
Issued by NWS

Home | Current Version | Previous Version | Text Only | Print | Product List | Glossary Off
Versions: 1 2 3 4 5 6 7 8 9 10 11 12 13 14 15 16 17 18 19 20 21 22 23 24 25 26 27 28 29 30 31 32 33 34 35 36 37 38 39 40 41 42 43 44 45 46 47 48 49 50

000
ASUS43 KIND 040809
RWRIN

WEATHER ROUNDUP FOR INDIANA
NATIONAL WEATHER SERVICE INDIANAPOLIS IN
300 AM EST SUN DEC 04 2016

NOTE: "FAIR" INDICATES FEW OR NO CLOUDS BELOW 12,000 FEET WITH NO
SIGNIFICANT WEATHER AND/OR OBSTRUCTIONS TO VISIBILITY.

* - STATION DOES NOT REPORT WEATHER SUCH AS PRECIPITATION OR FOG.

+ - STATION NOT QUALITY CONTROLLED BY THE NATIONAL WEATHER SERVICE.
    USE DATA WITH CAUTION...ESPECIALLY DEWPOINT AND RELATIVE
    HUMIDITY OBSERVATIONS.

INZ001>003-010>013-019-020-040900-
NORTHWEST INDIANA

CITY           SKY/WX    TMP DP  RH WIND       PRES   REMARKS
GARY /AIRPORT/ CLOUDY    32  28  86 CALM      30.25F
KNOX *+        CLOUDY    30  16  55 CALM      30.25F
LA PORTE +     CLOUDY    32  32 100 CALM      30.24F
MICHIGAN CITY+ CLOUDY    32  27  80 CALM      30.24F
MONTICELLO +   MOCLDY    33  24  71 E3        30.24F
RENSSELAER +   CLOUDY    32  30  93 E6        30.24S WCI  26
VALPARAISO     CLOUDY    31  25  78 E3        30.24F

$$

LMZ046-743>745-040900-
SOUTHERN LAKE MICHIGAN

STATION/POSITION TIME  TEMP    WIND        PRES    WAVE
                       AIR SEA DIR/SP/G            HT
                 (UTC) (F)     (DEG/KT/KT) (MB)    (FT)
BURNS HARBOR     0740   33     180/  5/  7 1024.4F
MICHIGAN CITY    0740   32     120/  5/  6   N/A

$$

INZ004-005-014>016-021>024-040900-
NORTH CENTRAL INDIANA

CITY           SKY/WX    TMP DP  RH WIND       PRES   REMARKS
GOSHEN         CLOUDY    31  26  82 CALM      30.26S
LOGANSPORT +   CLOUDY    32  28  86 E6        30.26F WCI  26
PERU/GRISSOM   CLOUDY    31  27  84 E5        30.24S WCI  27
ROCHESTER +    MOCLDY    32  32 100 E3        30.25F
SOUTH BEND     CLOUDY    31  25  78 CALM      30.26F
WARSAW +       CLOUDY    30  27  86 CALM      30.26R

$$

INZ006>009-017-018-025>027-040900-
NORTHEAST INDIANA

CITY           SKY/WX    TMP DP  RH WIND       PRES   REMARKS
ANGOLA *+      CLOUDY    32  28  86 CALM      30.25R
AUBURN +       CLOUDY    32  28  86 CALM      30.26S
FORT WAYNE     CLOUDY    33  28  81 E3        30.26F
HUNTINGTON +   CLOUDY    32  27  81 CALM      30.25F
KENDALLVILLE + CLOUDY    30  28  90 CALM      30.26R

$$

INZ028-029-035-036-043>045-051>053-040900-
WEST CENTRAL INDIANA

CITY           SKY/WX    TMP DP  RH WIND       PRES   REMARKS
CRAWFORDSVL +  CLOUDY    31  31 100 E3        30.22F
GREENCASTLE +  CLOUDY    32  32 100 E3        30.23F
LAFAYETTE      MOCLDY    32  28  85 E7        30.24F WCI  26
TERRE HAUTE    CLOUDY    34  29  82 E3        30.23F

$$

INZ030>032-037>040-046>048-054>057-064-065-040900-
CENTRAL INDIANA

CITY           SKY/WX    TMP DP  RH WIND       PRES   REMARKS
CP ATTERBURY + CLOUDY    32  32 100 CALM      30.25F
FRANKFORT +    CLOUDY    35  31  85 E5        30.25F WCI  31
GREENWOOD *+   CLOUDY    33  29  84 E3        30.24F
INDIANAPOLIS   CLOUDY    34  28  79 E6        30.23F WCI  29
-EAGLE CREEK   CLOUDY    34  27  75 E5        30.23F WCI  30
KOKOMO +       CLOUDY    31  28  89 NE3       30.26F
MARION +       CLOUDY    31  30  94 CALM      30.25F
MT COMFORT *+  PTCLDY    30  30 100 CALM      30.24F
SHELBYVILLE    CLOUDY    33  29  85 E5        30.23F WCI  29
ZIONSVILLE +   CLOUDY    31  29  91 NE3       30.24F

$$

INZ033-034-041-042-049-050-058-059-040900-
EAST CENTRAL INDIANA

CITY           SKY/WX    TMP DP  RH WIND       PRES   REMARKS
MUNCIE         CLOUDY    33  30  88 CALM      30.24F

$$

INZ060-061-067>069-081>083-085>088-040900-
SOUTHWEST INDIANA

CITY           SKY/WX    TMP DP  RH WIND       PRES   REMARKS
EVANSVILLE     LGT RAIN  40  31  70 NE7       30.20F
HUNTINGBURG *+ CLOUDY    39  30  70 E6        30.21F
WASHINGTON +   CLOUDY    37  33  86 E5        30.21F

$$

INZ062-063-066-070>080-084-089>092-040900-
SOUTH CENTRAL AND SOUTHEAST INDIANA

CITY           SKY/WX    TMP DP  RH WIND       PRES   REMARKS
BLOOMINGTON    CLOUDY    35  28  75 E5        30.22F WCI  31
MADISON *+     CLOUDY    36  30  80 E3        30.25F
NORTH VERNON + CLOUDY    36  36 100 E3        30.24F
SEYMOUR +      CLOUDY    36  32  87 NE3       30.24F

$$




USA.gov is the U.S. government's official web portal to all federal, state and local government web resources and services.